Regional Weather Roundup
Issued by NWS

Home | Current Version | Previous Version | Graphics & Text | Print | Product List | Glossary Off
Versions: 1 2 3 4 5 6 7 8 9 10 11 12 13 14 15 16 17 18 19 20 21 22 23 24 25 26 27 28 29 30 31 32 33 34 35 36 37 38 39 40 41 42 43 44 45 46 47 48 49 50

000
ASUS43 KLSX 231807
RWRMO

WEATHER SUMMARY FOR MISSOURI
NATIONAL WEATHER SERVICE SPRINGFIELD MO
1200 PM CST TUE JAN 23 2018

NOTE: "FAIR" INDICATES FEW OR NO CLOUDS BELOW 12,000 FEET WITH NO
       SIGNIFICANT WEATHER AND/OR OBSTRUCTIONS TO VISIBILITY.
       CURRENT SKY AND/OR WEATHER CONDITIONS ARE NOT AVAILABLE FOR
       CHILLICOTHE AND FARMINGTON.

MOZ001>031-035>038-043-044-053-054-231900-
...NORTHERN AND WESTERN MISSOURI...

CITY           SKY/WX    TMP DP  RH WIND       PRES   REMARKS
KANSAS CTY INT CLOUDY    30  24  78 NW9       30.19S WCI  22
6HR MIN TEMP:  28; 6HR MAX TEMP:  30;

KANSAS C DTWN  CLOUDY    31  24  75 NW12      30.21S WCI  22
6HR MIN TEMP:  30; 6HR MAX TEMP:  31;

LEE`S SUMMIT   CLOUDY    30  25  81 NW10      30.19S WCI  21
6HR MIN TEMP:  29; 6HR MAX TEMP:  30;

ST JOSEPH      CLOUDY    29  25  85 NW8       30.20S WCI  21
6HR MIN TEMP:  28; 6HR MAX TEMP:  29;

CHILLICOTHE      N/A     33  25  72 NW12G20   30.16R WCI  24
6HR MIN TEMP:  32; 6HR MAX TEMP:  33;

KIRKSVILLE     CLOUDY    32  27  81 W15G23    30.09R WCI  22
6HR MIN TEMP:  30; 6HR MAX TEMP:  32;


$$
MOZ066>068-077>081-088>096-101>105-231900-
...SOUTHWEST MISSOURI...

CITY           SKY/WX    TMP DP  RH WIND       PRES   REMARKS
SPRINGFIELD    CLOUDY    34  27  75 W9        30.18S WCI  27
6HR MIN TEMP:  31; 6HR MAX TEMP:  34;

JOPLIN         PTSUNNY   34  28  79 W9        30.23F WCI  27
6HR MIN TEMP:  30; 6HR MAX TEMP:  35;

BRANSON        PTSUNNY   36  27  69 NW8       30.19S WCI  29

$$
MOZ032>034-039>042-045>050-055>058-069>072-231900-
...CENTRAL MISSOURI...

CITY           SKY/WX    TMP DP  RH WIND       PRES   REMARKS
COLUMBIA       CLOUDY    34  27  75 W14       30.11R WCI  25
6HR MIN TEMP:  33; 6HR MAX TEMP:  34;

JEFFERSON CITY CLOUDY    35  27  72 NW18G30   30.14R WCI  24
6HR MIN TEMP:  34; 6HR MAX TEMP:  36;

ROLLA          CLOUDY    34  27  75 W18G28    30.10R WCI  23
6HR MIN TEMP:  32; 6HR MAX TEMP:  34;

SEDALIA        CLOUDY    33  29  85 W14G22    30.16S WCI  23
6HR MIN TEMP:  33; 6HR MAX TEMP:  33;

WHITEMAN AFB   CLOUDY    33  25  70 W16       30.13S WCI  23
WARRENSBURG    CLOUDY    32  27  80 W14       30.19S WCI  22
OSAGE BEACH    CLOUDY    34  27  75 NW9       30.16S WCI  27

$$
MOZ051-052-059>065-231900-
...EAST CENTRAL MISSOURI...

CITY           SKY/WX    TMP DP  RH WIND       PRES   REMARKS
ST LOUIS INTL  CLOUDY    35  27  72 NW14      30.06R WCI  26
6HR MIN TEMP:  34; 6HR MAX TEMP:  35; 6HR PCP: TRACE;

SPIRIT OF STL  CLOUDY    36  27  69 NW18G30   30.07R WCI  26
6HR MIN TEMP:  35; 6HR MAX TEMP:  36;

ST CHARLES     CLOUDY    35  27  72 W18       30.05R WCI  24
6HR MIN TEMP:  34; 6HR MAX TEMP:  35;


$$
MOZ072>076-082>087-097>100-106>115-231900-
...SOUTH CENTRAL AND SOUTHEAST MISSOURI...

CITY           SKY/WX    TMP DP  RH WIND       PRES   REMARKS
CAPE GIRARDEAU CLOUDY    40  29  64 W15       30.09R
6HR MIN TEMP:  37; 6HR MAX TEMP:  40;

FARMINGTON     CLOUDY    35  27  72 W16G23    30.07S WCI  25
6HR MIN TEMP:  34; 6HR MAX TEMP:  35;

POPLAR BLUFF   CLOUDY    41  28  60 W12G20    30.11S
6HR MIN TEMP:  37; 6HR MAX TEMP:  42;

WEST PLAINS    CLOUDY    37  26  64 NW15G24   30.13S WCI  28
6HR MIN TEMP:  32; 6HR MAX TEMP:  37;


$$



USA.gov is the U.S. government's official web portal to all federal, state and local government web resources and services.